TUBIN
1 48900U 21059X 24074.84186346 .00013900 00000-0 53526-3 0 9992
2 48900 97.6311 217.0801 0007950 59.8716 300.3309 15.26451569150510
LEDSAT
1 49069U 21073D 24074.76734982 .00012631 00000-0 56915-3 0 9996
2 49069 97.4462 146.7636 0019836 253.8224 106.0828 15.21008174142087
CUTE
1 49263U 21088D 24074.18631246 .00012673 00000-0 66706-3 0 9998
2 49263 97.5081 141.0531 0015930 54.8124 305.4598 15.15657516135233
TeikyoSat 4
1 49396U 21102B 24074.10728247 .00001543 00000-0 11680-3 0 9997
2 49396 97.4734 122.3545 0012046 235.6510 124.3577 15.03679480128467
Z-Sat
1 49399U 21102E 24074.84038260 .00003404 00000-0 22885-3 0 9997
2 49399 97.4444 124.4195 0019977 217.9632 142.0189 15.07255144128771
KOSEN 1
1 49402U 21102H 24074.39554990 .00005320 00000-0 33116-3 0 9993
2 49402 97.4375 125.1186 0018938 203.6124 156.4238 15.09862136128839
HO-113
1 50466U 21131B 24074.87470365 .00000684 00000-0 23403-3 0 9999
2 50466 98.5298 160.4027 0004967 59.1931 300.9745 14.39415402116434
Tevel-3
1 50988U 22002E 24074.79547188 .00057546 00000-0 11990-2 0 9991
2 50988 97.3911 147.6292 0003516 340.4849 19.6265 15.45389240120384
Tevel-8
1 50989U 22002F 24074.82885117 .00054738 00000-0 11454-2 0 9998
2 50989 97.3929 147.7494 0003518 336.7974 23.3115 15.45276144120382
Tevel-5
1 50998U 22002Q 24074.83389295 .00062450 00000-0 12002-2 0 9995
2 50998 97.3903 148.5751 0004221 326.2043 33.8937 15.47721314120454
Tevel-6
1 50999U 22002R 24074.83521337 .00063354 00000-0 12200-2 0 9995
2 50999 97.3902 148.5584 0004236 325.9870 34.1108 15.47659810120453
Tevel-1
1 51013U 22002AF 24074.81730632 .00054949 00000-0 11497-2 0 9998
2 51013 97.3905 147.5368 0003356 337.8044 22.3059 15.45278579120383
IRIS-A
1 51044U 22002BN 24074.44420647 .00017279 00000-0 65028-3 0 9998
2 51044 97.3952 141.5530 0006559 19.0959 341.0525 15.27167307119941
Tevel-7
1 51062U 22002CG 24074.82251438 .00055032 00000-0 11482-2 0 9993
2 51062 97.3924 147.7150 0003467 336.9302 23.1790 15.45360683120388
Tevel-4
1 51063U 22002CH 24074.84702166 .00055016 00000-0 11560-2 0 9994
2 51063 97.3923 147.6736 0003427 337.1261 22.9834 15.45152770120382
Tevel-2
1 51069U 22002CP 24074.79496266 .00057090 00000-0 11884-2 0 9998
2 51069 97.3909 147.5956 0003459 339.3046 20.8062 15.45418655120382
SO-115
1 51080U 22002DA 24073.68479181 .00107126 00000-0 14772-2 0 9990
2 51080 97.4186 153.7908 0004162 349.9487 10.1684 15.56834430120508
SO-114
1 51081U 22002DB 24074.17159208 .00099163 00000-0 13055-2 0 9995
2 51081 97.4194 154.4333 0003784 343.6080 16.5052 15.58110969120591
OreSat0
1 52017U 22026K 24074.82298892 .00040275 00000-0 97552-3 0 9991
2 52017 97.5053 85.7594 0014972 187.9263 172.1749 15.40867724111124
Planetum 1
1 52738U 22057G 24074.28137040 .00028678 00000-0 90268-3 0 9992
2 52738 97.5546 197.7245 0005711 127.9370 232.2388 15.32883892 99994
Foresail-1
1 52766U 22057AL 24074.86660978 .00017084 00000-0 63582-3 0 9996
2 52766 97.5690 198.5633 0010849 103.6997 256.5450 15.27507508100037
SNUGLITE 2
1 52899U 22065F 24074.37982283 .00001753 00000-0 37194-3 0 9990
2 52899 98.1029 217.4753 0008820 90.5415 269.6796 14.60338433 90420
IO-117
1 53106U 22080B 24069.66819003 -.00000003 00000-0 00000-0 0 9995
2 53106 70.1332 227.0918 0008274 126.4127 233.7296 6.42557646 38879
SelfieSat
1 53951U 22057BC 24074.84884016 .00047428 00000-0 11886-2 0 9996
2 53951 97.5578 200.6094 0005399 119.8635 240.3147 15.39895146100201
FO-118
1 54684U 22167C 24074.84504896 .00020996 00000-0 86351-3 0 9998
2 54684 97.5920 217.9557 0011235 117.1657 243.0727 15.24125663 69901
SSS-2B
1 56184U 23054G 24074.83461410 .00023617 00000-0 72318-3 0 9995
2 56184 97.3805 332.4912 0009267 140.9135 219.2779 15.33772742 51643
CIRBE
1 56188U 23054L 24074.26725636 .00038881 00000-0 97795-3 0 9994
2 56188 97.3730 332.7070 0008389 129.5472 230.6517 15.39807883 51629
INSPIRE-Sat 7
1 56211U 23054AK 24074.22305132 .00038419 00000-0 92424-3 0 9993
2 56211 97.3777 333.6440 0012039 117.4027 242.8446 15.41126020 51678
RoseyCubesat 1
1 56212U 23054AL 24074.85679562 .00047386 00000-0 10706-2 0 9999
2 56212 97.3775 334.6497 0012077 113.3551 246.8968 15.42965587 51795
SO-120
1 56992U 23084BU 24074.76326148 .00020970 00000-0 92176-3 0 9998
2 56992 97.5203 193.6361 0013846 356.8952 3.2196 15.21837581 41791
MRC-100
1 56993U 23084BV 24074.30422656 .00022382 00000-0 95415-3 0 9998
2 56993 97.5209 193.3475 0013574 357.3257 2.7904 15.22870484 41749
UmKA 1 (RS40S)
1 57172U 23091G 24074.83688566 .00005546 00000-0 38204-3 0 9994
2 57172 97.6241 127.8780 0018426 84.4041 275.9287 15.06122129 39289
CubeBel-2 (EU11S)
1 57175U 23091K 24074.88070726 .00006844 00000-0 46801-3 0 9999
2 57175 97.6253 127.8089 0017187 95.7997 264.5190 15.06330756 39289
VERONIKA
1 58261U 23174F 24074.79828697 .00014136 00000-0 71768-3 0 9999
2 58261 97.4679 150.7260 0012929 208.3315 151.7217 15.16941181 19384
KAFASAT
1 58317U 23174BP 24074.78424746 .00018148 00000-0 86361-3 0 9999
2 58317 97.4625 150.9617 0012336 187.1527 172.9534 15.19152207 19402
ENSO
1 58470U 23185J 24074.81934467 .00012491 00000-0 58880-3 0 9991
2 58470 97.4367 142.7494 0012652 246.9829 113.0072 15.19562787 15796
EIRSAT-1
1 58472U 23185L 24074.81544625 .00014492 00000-0 67893-3 0 9993
2 58472 97.4360 142.7434 0012456 247.8503 112.1411 15.19743974 15792
SO-121
1 58567U 23174CY 24074.15695263 .00031712 00000-0 14650-2 0 9994
2 58567 97.4631 150.2884 0014771 201.3688 158.6932 15.20029358 19301
Clark sat-1 (AMBITIOUS)
1 58613U 98067WE 24074.80200493 .00255866 00000-0 16490-2 0 9990
2 58613 51.6327 56.0474 0007835 59.6945 300.4829 15.74808023 13701
BeliefSat 0
1 58695U 24001B 24072.83119694 .00696854 19859-3 79368-3 0 9995
2 58695 9.6608 223.6777 0004962 38.0902 321.9665 16.07587239 11395
/EX
1
0
14 Mar '24
This week there are no additions or deletions to the AMSAT TLE distribution.
1
0
07 Mar '24
The following satellite has been removed from this week's AMSAT-NA TLE distribution:
CUBEL-1 NORAD Cat ID 49017 Decayed from orbit on or about 06 February 2024
1
0
SB KEPS @ AMSAT $ORB24068.1
2Line Orbital Elements 24068.AMSAT
QST de W1STR
AMSAT Orbital Elements for Amateur Satellites in TLE Format
>From Orbital Analysis Office
New England Sci-Tech STEM Education Center
Natick, MA March 08, 2024
To all radio amateurs
These element sets describe the orbits of various satellites
in use by the amateur radio community. For details see:
www.amsat.org/keplerian-elements-formats/
A daily update of element sets is available at:
www.amsat.org/tle/daily-bulletin.txt
or without bulletin text:
www.amsat.org/tle/dailytle.txt
AO-07
1 07530U 74089B 24066.53754552 -.00000018 00000-0 17895-3 0 9990
2 07530 101.9749 60.2390 0011893 280.7477 193.8836 12.53672895256172
UO-11
1 14781U 84021B 24066.90377114 .00002045 00000-0 23899-3 0 9991
2 14781 97.6936 39.3577 0009580 60.1898 300.0269 14.86144320154295
AO-16
1 20439U 90005D 24066.99682837 .00000303 00000-0 12686-3 0 9994
2 20439 98.9008 69.2620 0011319 146.4756 272.3648 14.33295659782946
